Home   Weather   Boulder   Past weeks

Flag for USA Past Weather in Boulder, Colorado, USA — Yesterday and Last 2 Weeks

72 °F

Scattered clouds.

Feels Like: 73 °F
Forecast: 42 / 79 °F
Wind: 5 mph from North

Location: Broomfield / Jeffco

Current Time: Oct 22, 2016 at 1:49:29 PM

Latest Report: Oct 22, 2016 at 10:47 AM

Visibility: 70 mi

Pressure: 30.05 "Hg (24.90 "Hg at 1623m altitude)

Humidity: 14%

Dew Point: 19 °F

Location of BoulderLocation

Past Weather in Boulder — Graph


Boulder Temperature Yesterday

Maximum temperature yesterday: 79 °F (at 2:47 PM)
Minimum temperature yesterday: 41 °F (at 3:16 AM)
Average temperature yesterday: 54 °F

High & Low Weather Summary for the Past Weeks

High86 °F (Oct 16, 2:45 PM)100% (Oct 12, 2:15 AM)30.48 "Hg (Oct 12, 2:15 AM)
Low30 °F (Oct 20, 6:45 AM)8% (Oct 21, 9:47 AM)29.58 "Hg (Oct 17, 5:56 AM)
Average54 °F42%30.09 "Hg
* Reported Oct 7 10:47 AM — Oct 22 10:47 AM, Boulder, Weather by CustomWeather, © 2016

Note: Actual official high and low records may vary slightly from our data, if they occured in-between our weather recording intervals... More about our weather records


Boulder Weather History for the Previous 24 Hours

Scroll right to see more
Time TempWeatherWind HumidityBarometerVisibility
10:47 AM
Sat, Oct 22
72 °FScattered clouds.5 mph14%30.05 "Hg70 mi
9:55 AM66 °FScattered clouds.5 mph17%30.06 "Hg70 mi
8:47 AM59 °FPassing clouds.5 mph17%30.06 "Hg70 mi
7:47 AM54 °FPassing clouds.5 mph18%30.05 "Hg50 mi
6:47 AM46 °FPassing clouds.3 mph27%30.04 "Hg50 mi
5:55 AM46 °FClear.6 mph27%30.04 "Hg10 mi
5:37 AM45 °FClear.5 mph31%30.05 "Hg10 mi
5:16 AM46 °FClear.No wind37%30.05 "Hg10 mi
4:56 AM46 °FClear.3 mph40%30.05 "Hg10 mi
4:36 AM45 °FClear.3 mph31%30.06 "Hg10 mi
4:17 AM50 °FClear.No wind24%30.06 "Hg10 mi
3:56 AM52 °FClear.3 mph22%30.06 "Hg10 mi
3:36 AM46 °FClear.No wind27%30.06 "Hg10 mi
3:17 AM46 °FClear.6 mph27%30.07 "Hg10 mi
2:56 AM46 °FClear.No wind32%30.07 "Hg10 mi
2:36 AM46 °FClear.No wind32%30.07 "Hg10 mi
2:17 AM50 °FClear.7 mph28%30.08 "Hg10 mi
1:57 AM50 °FClear.8 mph28%30.08 "Hg10 mi
1:36 AM50 °FClear.7 mph28%30.08 "Hg10 mi
1:16 AM50 °FClear.5 mph28%30.08 "Hg10 mi
12:56 AM50 °FClear.3 mph28%30.08 "Hg10 mi
12:36 AM48 °FClear.7 mph29%30.08 "Hg10 mi
12:16 AM50 °FClear.3 mph30%30.09 "Hg10 mi
11:57 PM
Fri, Oct 21
52 °FClear.3 mph26%30.10 "Hg10 mi
11:36 PM50 °FClear.9 mph28%30.10 "Hg10 mi
11:15 PM57 °FClear.7 mph18%30.10 "Hg10 mi
9:47 PM55 °FPassing clouds.6 mph19%30.13 "Hg50 mi
8:47 PM61 °FPassing clouds.3 mph17%30.15 "Hg50 mi
7:45 PM59 °FPassing clouds.3 mph18%30.15 "Hg50 mi
6:47 PM66 °FPassing clouds.6 mph14%30.13 "Hg50 mi
4:45 PM77 °FScattered clouds.17 mph10%30.11 "Hg50 mi
3:47 PM79 °FScattered clouds.10 mph10%30.11 "Hg50 mi
2:47 PM79 °FScattered clouds.22 mph10%30.11 "Hg50 mi
1:46 PM77 °FScattered clouds.18 mph10%30.14 "Hg50 mi
Weather by CustomWeather, © 2016

See weather overviewHow to use our weather pages